Location: Unspecified
(38.9820°N, 94.4650°W)
Time: 03:22:11
(UTC-05:00)

Hubble Space Telescope - Visible Passes

Search period start: 30 May 2015 00:00
Search period end: 09 June 2015 00:00
Orbit: 542 x 546 km, 28.5° (Epoch: 29 May)

Date Brightness Start Highest point End Pass type
(mag) Time Alt. Az. Time Alt. Az. Time Alt. Az.
03 Jun 3.0 04:34:59 10° S 04:36:04 11° SSE 04:37:22 10° SE visible
04 Jun 2.8 04:26:35 13° S 04:27:14 13° SSE 04:29:14 10° SE visible
05 Jun 2.7 04:18:11 15° S 04:18:24 15° SSE 04:20:48 10° SE visible
06 Jun 2.6 04:09:49 16° SSE 04:09:49 16° SSE 04:12:13 10° SE visible
07 Jun 2.6 04:01:29 17° SSE 04:01:29 17° SSE 04:03:34 10° SE visible
08 Jun 2.7 03:53:14 16° SSE 03:53:14 16° SSE 03:54:50 10° SE visible
